TimeCST,TemperatureF,Dew PointF,Humidity,Sea Level PressureIn,VisibilityMPH,Wind Direction,Wind SpeedMPH,Gust SpeedMPH,PrecipitationIn,Events,Conditions,WindDirDegrees,DateUTC
12:13 AM,1.4,-4.0,78,30.43,2.5,ESE,5.8,-,N/A,Snow,Light Snow,110,2013-12-08 06:13:00
12:32 AM,1.4,-2.2,85,30.42,3.0,ESE,5.8,-,N/A,Snow,Light Snow,120,2013-12-08 06:32:00
12:52 AM,1.4,-2.2,85,30.41,2.5,East,6.9,-,N/A,Snow,Light Snow,100,2013-12-08 06:52:00
1:13 AM,1.4,-2.2,85,30.39,2.5,East,5.8,-,N/A,Snow,Light Snow,100,2013-12-08 07:13:00
1:32 AM,1.4,-2.2,85,30.37,3.0,East,6.9,-,N/A,Snow,Light Snow,100,2013-12-08 07:32:00
1:52 AM,1.4,-2.2,85,30.36,3.0,East,6.9,-,N/A,Snow,Light Snow,100,2013-12-08 07:52:00
2:13 AM,1.4,-0.4,92,30.35,3.0,East,6.9,-,N/A,Snow,Light Snow,100,2013-12-08 08:13:00
2:32 AM,3.2,-0.4,85,30.34,2.5,East,6.9,-,N/A,Snow,Light Snow,90,2013-12-08 08:32:00
2:53 AM,3.2,-0.4,85,30.34,3.0,East,8.1,-,N/A,Snow,Light Snow,100,2013-12-08 08:53:00
3:12 AM,3.2,-0.4,85,30.33,2.5,East,8.1,-,N/A,Snow,Light Snow,100,2013-12-08 09:12:00
3:32 AM,3.2,1.4,92,30.31,2.5,East,6.9,-,N/A,Snow,Light Snow,100,2013-12-08 09:32:00
3:53 AM,5.0,1.4,85,30.30,3.0,East,6.9,-,N/A,Snow,Light Snow,100,2013-12-08 09:53:00
4:12 AM,5.0,1.4,85,30.29,2.0,East,6.9,-,N/A,Snow,Light Snow,100,2013-12-08 10:12:00
4:32 AM,5.0,1.4,85,30.28,2.5,East,8.1,-,N/A,Snow,Light Snow,100,2013-12-08 10:32:00
4:53 AM,6.8,3.2,85,30.27,1.8,East,8.1,-,N/A,Snow,Light Snow,100,2013-12-08 10:53:00
5:12 AM,6.8,3.2,85,30.26,2.5,ESE,8.1,-,N/A,Snow,Light Snow,110,2013-12-08 11:12:00
5:32 AM,6.8,5.0,92,30.25,2.0,ESE,9.2,-,N/A,Snow,Light Snow,120,2013-12-08 11:32:00
5:53 AM,6.8,5.0,92,30.24,1.8,ESE,9.2,-,N/A,Snow,Light Snow,120,2013-12-08 11:53:00
6:12 AM,8.6,3.2,79,30.23,2.0,ESE,11.5,-,N/A,Snow,Light Snow,120,2013-12-08 12:12:00
6:32 AM,8.6,5.0,85,30.22,2.0,ESE,11.5,-,N/A,Snow,Light Snow,110,2013-12-08 12:32:00
6:53 AM,8.6,3.2,79,30.22,2.5,ESE,10.4,-,N/A,Snow,Light Snow,110,2013-12-08 12:53:00
7:12 AM,8.6,5.0,85,30.22,2.0,ESE,9.2,-,N/A,Snow,Light Snow,120,2013-12-08 13:12:00
7:32 AM,8.6,5.0,85,30.21,2.0,ESE,10.4,-,N/A,Snow,Light Snow,120,2013-12-08 13:32:00
7:53 AM,8.6,5.0,85,30.20,1.8,ESE,9.2,-,N/A,Snow,Light Snow,110,2013-12-08 13:53:00
8:12 AM,8.6,5.0,85,30.20,1.2,ESE,11.5,-,N/A,Snow,Light Snow,120,2013-12-08 14:12:00
8:32 AM,8.6,5.0,85,30.19,1.0,ESE,11.5,17.3,N/A,Snow,Light Snow,120,2013-12-08 14:32:00
8:53 AM,8.6,5.0,85,30.18,1.5,ESE,10.4,-,N/A,Snow,Light Snow,120,2013-12-08 14:53:00
9:12 AM,8.6,5.0,85,30.18,2.0,ESE,10.4,-,N/A,Snow,Light Snow,120,2013-12-08 15:12:00
9:32 AM,8.6,5.0,85,30.17,1.8,ESE,10.4,-,N/A,Snow,Light Snow,120,2013-12-08 15:32:00
9:53 AM,8.6,6.8,92,30.17,1.2,SE,12.7,16.1,N/A,Snow,Light Snow,140,2013-12-08 15:53:00
10:12 AM,10.4,6.8,85,30.17,1.2,SE,10.4,-,N/A,Snow,Light Snow,130,2013-12-08 16:12:00
10:32 AM,10.4,6.8,85,30.16,4.0,ESE,10.4,-,N/A,Snow,Light Snow,120,2013-12-08 16:32:00
10:53 AM,10.4,6.8,85,30.15,5.0,SE,10.4,-,N/A,,Haze,130,2013-12-08 16:53:00
11:12 AM,10.4,6.8,85,30.14,10.0,SE,12.7,-,N/A,Snow,Light Snow,140,2013-12-08 17:12:00
11:32 AM,10.4,6.8,85,30.13,2.0,SE,10.4,-,N/A,Snow,Light Snow,130,2013-12-08 17:32:00
11:53 AM,10.4,6.8,85,30.11,1.2,SE,11.5,16.1,N/A,Snow,Light Snow,140,2013-12-08 17:53:00
12:12 PM,12.2,6.8,79,30.10,1.2,SE,11.5,-,N/A,Snow,Light Snow,140,2013-12-08 18:12:00
12:32 PM,12.2,8.6,85,30.09,1.2,SE,9.2,-,N/A,Snow,Light Snow,130,2013-12-08 18:32:00
12:53 PM,12.2,6.8,79,30.07,1.5,SE,11.5,-,N/A,Snow,Light Snow,140,2013-12-08 18:53:00
1:12 PM,12.2,8.6,85,30.06,1.8,SE,8.1,-,N/A,Snow,Light Snow,130,2013-12-08 19:12:00
1:32 PM,12.2,8.6,85,30.05,2.0,SE,9.2,-,N/A,Snow,Light Snow,140,2013-12-08 19:32:00
1:53 PM,12.2,6.8,79,30.05,3.0,SSE,9.2,-,N/A,Snow,Light Snow,150,2013-12-08 19:53:00
2:12 PM,12.2,8.6,85,30.04,1.5,SE,8.1,-,N/A,Snow,Light Snow,140,2013-12-08 20:12:00
2:33 PM,12.2,8.6,85,30.03,1.5,SE,5.8,-,N/A,Snow,Light Snow,140,2013-12-08 20:33:00
2:52 PM,12.2,8.6,85,30.02,3.0,SE,9.2,-,N/A,Snow,Light Snow,140,2013-12-08 20:52:00
3:12 PM,12.2,8.6,85,30.02,2.0,ESE,4.6,-,N/A,Snow,Light Snow,120,2013-12-08 21:12:00
3:33 PM,12.2,8.6,85,30.02,2.0,SE,4.6,-,N/A,Snow,Light Snow,140,2013-12-08 21:33:00
3:53 PM,12.2,8.6,85,30.03,5.0,SSE,5.8,-,N/A,Snow,Light Snow,150,2013-12-08 21:53:00
4:12 PM,12.2,8.6,85,30.03,2.5,SE,4.6,-,N/A,Snow,Light Snow,140,2013-12-08 22:12:00
4:33 PM,12.2,8.6,85,30.02,1.8,SE,3.5,-,N/A,Snow,Light Snow,140,2013-12-08 22:33:00
4:53 PM,12.2,8.6,85,30.02,3.0,SE,3.5,-,N/A,Snow,Light Snow,130,2013-12-08 22:53:00
5:12 PM,12.2,8.6,85,30.02,3.0,Calm,Calm,-,N/A,Snow,Light Snow,0,2013-12-08 23:12:00
5:33 PM,10.4,8.6,92,30.02,2.5,Calm,Calm,-,N/A,Snow,Light Snow,0,2013-12-08 23:33:00
5:53 PM,10.4,8.6,92,30.02,4.0,Calm,Calm,-,N/A,Snow,Light Snow,0,2013-12-08 23:53:00
6:12 PM,10.4,8.6,92,30.02,2.0,Calm,Calm,-,N/A,Snow,Light Snow,0,2013-12-09 00:12:00
6:33 PM,10.4,8.6,92,30.02,1.8,Calm,Calm,-,N/A,Snow,Light Snow,0,2013-12-09 00:33:00
6:52 PM,10.4,8.6,92,30.02,3.0,Calm,Calm,-,N/A,Snow,Light Snow,0,2013-12-09 00:52:00
7:13 PM,10.4,8.6,92,30.02,2.5,Calm,Calm,-,N/A,Snow,Light Snow,0,2013-12-09 01:13:00
7:32 PM,10.4,8.6,92,30.02,5.0,Calm,Calm,-,N/A,Snow,Light Snow,0,2013-12-09 01:32:00
7:52 PM,10.4,6.8,85,30.02,5.0,Calm,Calm,-,N/A,Snow,Light Snow,0,2013-12-09 01:52:00
8:13 PM,8.6,6.8,92,30.02,7.0,West,3.5,-,N/A,Snow,Light Snow,270,2013-12-09 02:13:00
8:32 PM,8.6,6.8,92,30.02,10.0,West,3.5,-,N/A,Snow,Light Snow,260,2013-12-09 02:32:00
8:52 PM,6.8,5.0,92,30.02,10.0,WSW,4.6,-,N/A,Snow,Light Snow,250,2013-12-09 02:52:00
9:13 PM,6.8,3.2,85,30.02,10.0,WSW,4.6,-,N/A,Snow,Light Snow,240,2013-12-09 03:13:00
9:32 PM,3.2,-0.4,85,30.02,10.0,WSW,6.9,-,N/A,Snow,Light Snow,250,2013-12-09 03:32:00
9:52 PM,1.4,-2.2,85,30.03,10.0,West,3.5,-,N/A,Snow,Light Snow,260,2013-12-09 03:52:00
10:13 PM,1.4,-2.2,85,30.02,5.0,West,4.6,-,N/A,Snow,Light Snow,260,2013-12-09 04:13:00
10:32 PM,-2.2,-5.8,85,30.02,10.0,West,5.8,-,N/A,,Clear,270,2013-12-09 04:32:00
10:52 PM,-2.2,-5.8,85,30.02,7.0,West,3.5,-,N/A,,Clear,270,2013-12-09 04:52:00
11:13 PM,-4.0,-7.6,85,30.02,10.0,West,4.6,-,N/A,,Clear,280,2013-12-09 05:13:00
11:32 PM,-5.8,-7.6,92,30.02,10.0,West,3.5,-,N/A,,Clear,280,2013-12-09 05:32:00
11:52 PM,-4.0,-7.6,85,30.02,10.0,Calm,Calm,-,N/A,,Clear,0,2013-12-09 05:52:00